Weather History for KCLT - June, 2003

Change the Weather History Date:

Thursday, June 19, 2003

  Actual Average Record
Temperature  
Mean Temperature 76 °F 76 °F  
Max Temperature 82 °F 87 °F 102 °F (1944)
Min Temperature 69 °F 66 °F 54 °F (1965)
Degree Days  
Heating Degree Days 0 0  
Month to date heating degree days 0  
Since 1 June heating degree days 0  
Since 1 July heating degree days 3385  
Cooling Degree Days 11 11  
Month to date cooling degree days 176  
Year to date cooling degree days 339  
Since 1 June cooling degree days 176  
Growing Degree Days 26 (Base 50)    
Moisture  
Dew Point 70 °F    
Average Humidity 88    
Maximum Humidity 100    
Minimum Humidity 67    
Precipitation  
Precipitation 0.18 in 0.13 in 1.50 in (1995)
Month to date precipitation 2.48  
Year to date precipitation 19.44  
Snow  
Snow 0.00 in 0.00 in 0.00 in ()
Month to date snowfall 0.0  
Since 1 June snowfall 0.0  
Since 1 July snowfall 4.3  
Snow Depth -    
Sea Level Pressure  
Sea Level Pressure 29.83 in    
Wind  
Wind Speed 4 mph (South)    
Max Wind Speed 10 mph    
Max Gust Speed -    
Visibility 8 miles    
Events Rain    
T = Trace of Precipitation, MM = Missing Value Source: NWS Daily Summary

Daily Weather History Graph

Daily Weather History Graph

Search for Another Location

Airport or City:

Trip Planner

Search our weather history database for the weather conditions in past years. The results will help you decide how hot, cold, wet, or windy it might be!

Date:

Astronomy

Jun. 19, 2003 Rise Set
Actual Time 6:09 AM EDT 8:41 PM EDT
Civil Twilight 5:39 AM EDT 9:10 PM EDT
Nautical Twilight 5:02 AM EDT 9:47 PM EDT
Astronomical Twilight 4:21 AM EDT 10:28 PM EDT
Moon 12:38 AM EDT (6/19) 11:27 AM EDT (6/19)
Length of Visible Light 15h 31m
Length of Day
14h 32m
Waning Gibbous, 69% of the Moon is Illuminated
Jun 19
Waning Gibbous
Jun 21
Last Quarter
Jun 29
New
Jul 6
First Quarter
Jul 13
Full

Hourly Weather History & Observations

Time (EDT) Temp. Heat Index Dew Point Humidity Pressure Visibility Wind Dir Wind Speed Gust Speed Precip Events Conditions
12:29 AM 71.6 °F - 71.6 °F 100% 29.89 in 3.0 mi South 3.5 mph - N/A   Overcast
12:51 AM 71.1 °F - 71.1 °F 100% 29.86 in 5.0 mi South 6.9 mph - N/A   Overcast
1:51 AM 71.1 °F - 70.0 °F 96% 29.85 in 7.0 mi SSW 6.9 mph - N/A   Overcast
2:51 AM 70.0 °F - 69.1 °F 97% 29.83 in 8.0 mi Variable 4.6 mph - N/A   Overcast
3:51 AM 70.0 °F - 69.1 °F 97% 29.83 in 6.0 mi Variable 3.5 mph - N/A   Overcast
4:51 AM 70.0 °F - 69.1 °F 97% 29.83 in 7.0 mi Variable 3.5 mph - N/A   Overcast
5:51 AM 70.0 °F - 69.1 °F 97% 29.82 in 6.0 mi South 4.6 mph - N/A   Overcast
6:51 AM 70.0 °F - 69.1 °F 97% 29.82 in 7.0 mi Variable 6.9 mph - N/A   Overcast
7:51 AM 70.0 °F - 69.1 °F 97% 29.83 in 7.0 mi Variable 3.5 mph - N/A   Overcast
8:51 AM 71.1 °F - 70.0 °F 96% 29.84 in 5.0 mi Calm Calm - N/A   Overcast
9:35 AM 73.4 °F - 69.8 °F 88% 29.86 in 8.0 mi Variable 4.6 mph - N/A   Overcast
9:51 AM 73.9 °F - 70.0 °F 87% 29.84 in 8.0 mi Variable 5.8 mph - N/A   Overcast
10:51 AM 78.1 °F - 71.1 °F 79% 29.83 in 10.0 mi Variable 5.8 mph - N/A   Mostly Cloudy
11:10 AM 78.8 °F - 71.6 °F 78% 29.85 in 10.0 mi Variable 6.9 mph - N/A   Scattered Clouds
11:51 AM 80.1 °F 83.2 °F 70.0 °F 71% 29.83 in 10.0 mi Variable 3.5 mph - N/A   Scattered Clouds
12:51 PM 82.9 °F 87.5 °F 71.1 °F 67% 29.82 in 10.0 mi Variable 6.9 mph - N/A   Mostly Cloudy
1:51 PM 73.9 °F - 69.1 °F 85% 29.82 in - Calm Calm - 0.06 in Rain Light Rain
1:54 PM 71.6 °F - 69.8 °F 94% 29.84 in 0.8 mi Variable 3.5 mph - 0.05 in Rain Heavy Rain
2:01 PM 73.4 °F - 69.8 °F 88% 29.83 in 3.0 mi Calm Calm - 0.06 in Rain Light Rain
2:51 PM 82.9 °F 88.0 °F 72.0 °F 69% 29.79 in 10.0 mi Variable 4.6 mph - 0.06 in   Mostly Cloudy
3:51 PM 79.0 °F - 72.0 °F 79% 29.79 in 10.0 mi Variable 3.5 mph - 0.00 in   Mostly Cloudy
4:51 PM 77.0 °F - 71.1 °F 82% 29.80 in 3.0 mi North 10.4 mph - 0.04 in Rain Heavy Rain
5:51 PM 79.0 °F - 73.0 °F 82% 29.78 in 10.0 mi SSE 5.8 mph - 0.02 in   Mostly Cloudy
6:51 PM 79.0 °F - 72.0 °F 79% 29.79 in 10.0 mi SE 8.1 mph - N/A   Mostly Cloudy
7:51 PM 77.0 °F - 73.0 °F 88% 29.80 in 10.0 mi South 4.6 mph - N/A   Mostly Cloudy
8:51 PM 73.9 °F - 72.0 °F 93% 29.81 in 10.0 mi South 4.6 mph - N/A   Mostly Cloudy
9:51 PM 73.9 °F - 72.0 °F 93% 29.82 in 10.0 mi Calm Calm - N/A   Mostly Cloudy
10:51 PM 72.0 °F - 69.1 °F 91% 29.83 in 10.0 mi Calm Calm - N/A   Mostly Cloudy
11:51 PM 69.1 °F - 66.9 °F 93% 29.84 in 10.0 mi SSW 4.6 mph - N/A   Partly Cloudy